Time,TemperatureF,DewpointF,PressureIn,WindDirection,WindDirectionDegrees,WindSpeedMPH,WindSpeedGustMPH,Humidity,HourlyPrecipIn,Conditions,Clouds,dailyrainin,SoftwareType,DateUTC
2013-10-28 00:13:00,77.0,70.0,30.03,North,7,7.0,13.0,79,0.00,,,0.00,,2013-10-28 04:13:00,
2013-10-28 00:23:00,77.0,70.0,30.03,ENE,65,6.0,13.0,78,0.00,,,0.00,,2013-10-28 04:23:00,
2013-10-28 00:53:00,78.0,71.0,30.03,North,356,5.0,10.0,79,0.00,,,0.00,,2013-10-28 04:53:00,
2013-10-28 01:13:00,77.0,70.0,30.03,NE,39,7.0,13.0,78,0.00,,,0.00,,2013-10-28 05:13:00,
2013-10-28 01:22:00,77.0,69.0,30.03,NE,41,7.0,12.0,77,0.00,,,0.00,,2013-10-28 05:22:00,
2013-10-28 01:53:00,77.0,70.0,30.02,ENE,59,7.0,12.0,79,0.00,,,0.00,,2013-10-28 05:53:00,
2013-10-28 02:12:00,77.0,70.0,30.02,ENE,69,6.0,14.0,78,0.00,,,0.00,,2013-10-28 06:12:00,
2013-10-28 02:22:00,77.0,69.0,30.01,ENE,69,10.0,15.0,77,0.00,,,0.00,,2013-10-28 06:22:00,
2013-10-28 02:43:00,77.0,70.0,30.01,East,92,9.0,16.0,78,0.00,,,0.00,,2013-10-28 06:43:00,
2013-10-28 02:52:00,77.0,69.0,30.01,ENE,64,9.0,16.0,77,0.00,,,0.00,,2013-10-28 06:52:00,
2013-10-28 03:22:00,77.0,69.0,30.00,ENE,62,6.0,16.0,77,0.00,,,0.00,,2013-10-28 07:22:00,
2013-10-28 03:52:00,77.0,69.0,29.99,ENE,72,5.0,15.0,77,0.00,,,0.00,,2013-10-28 07:52:00,
2013-10-28 04:12:00,77.0,69.0,30.00,East,92,5.0,9.0,77,0.00,,,0.00,,2013-10-28 08:12:00,
2013-10-28 04:22:00,77.0,70.0,29.99,ENE,75,5.0,10.0,78,0.00,,,0.00,,2013-10-28 08:22:00,
2013-10-28 04:42:00,77.0,70.0,29.99,ENE,72,5.0,10.0,79,0.00,,,0.00,,2013-10-28 08:42:00,
2013-10-28 04:52:00,77.0,70.0,29.99,East,92,4.0,10.0,79,0.00,,,0.00,,2013-10-28 08:52:00,
2013-10-28 05:22:00,77.0,70.0,29.99,NNE,26,3.0,8.0,80,0.00,,,0.00,,2013-10-28 09:22:00,
2013-10-28 05:53:00,77.0,70.0,29.99,North,4,3.0,7.0,80,0.00,,,0.00,,2013-10-28 09:53:00,
2013-10-28 06:23:00,77.0,71.0,30.00,NNE,32,5.0,12.0,81,0.00,,,0.00,,2013-10-28 10:23:00,
2013-10-28 06:43:00,77.0,71.0,30.01,North,3,10.0,14.0,81,0.00,,,0.00,,2013-10-28 10:43:00,
2013-10-28 06:53:00,77.0,71.0,30.00,NNE,12,8.0,14.0,81,0.00,,,0.00,,2013-10-28 10:53:00,
2013-10-28 07:12:00,77.0,71.0,30.01,North,11,9.0,13.0,81,0.00,,,0.00,,2013-10-28 11:12:00,
2013-10-28 07:22:00,77.0,71.0,30.01,NW,324,8.0,13.0,83,0.00,,,0.00,,2013-10-28 11:22:00,
2013-10-28 07:42:00,77.0,72.0,30.01,North,5,8.0,12.0,84,0.00,,,0.00,,2013-10-28 11:42:00,
2013-10-28 07:52:00,77.0,71.0,30.02,NNE,13,9.0,15.0,83,0.00,,,0.00,,2013-10-28 11:52:00,
2013-10-28 08:21:00,77.0,72.0,30.03,North,355,8.0,14.0,85,0.00,,,0.00,,2013-10-28 12:21:00,
2013-10-28 08:42:00,77.0,72.0,30.03,North,355,8.0,13.0,85,0.00,,,0.00,,2013-10-28 12:42:00,
2013-10-28 08:52:00,76.0,72.0,30.03,North,4,10.0,14.0,86,0.00,,,0.00,,2013-10-28 12:52:00,
2013-10-28 09:11:00,76.0,72.0,30.04,North,349,8.0,13.0,86,0.00,,,0.00,,2013-10-28 13:11:00,
2013-10-28 09:22:00,76.0,72.0,30.05,North,1,9.0,13.0,86,0.00,,,0.00,,2013-10-28 13:22:00,
2013-10-28 09:42:00,76.0,71.0,30.06,NNE,13,8.0,14.0,85,0.00,,,0.00,,2013-10-28 13:42:00,
2013-10-28 09:52:00,76.0,71.0,30.06,NNE,18,8.0,12.0,85,0.00,,,0.00,,2013-10-28 13:52:00,
2013-10-28 10:11:00,77.0,72.0,30.06,North,360,9.0,13.0,85,0.00,,,0.00,,2013-10-28 14:11:00,
2013-10-28 10:22:00,77.0,72.0,30.07,North,2,8.0,13.0,85,0.00,,,0.00,,2013-10-28 14:22:00,
2013-10-28 10:42:00,77.0,72.0,30.07,North,360,7.0,12.0,85,0.00,,,0.00,,2013-10-28 14:42:00,
2013-10-28 10:52:00,78.0,73.0,30.08,North,4,8.0,13.0,85,0.00,,,0.00,,2013-10-28 14:52:00,
2013-10-28 11:11:00,78.0,73.0,30.08,North,353,8.0,12.0,84,0.00,,,0.00,,2013-10-28 15:11:00,
2013-10-28 11:22:00,78.0,72.0,30.08,North,3,8.0,12.0,83,0.00,,,0.00,,2013-10-28 15:22:00,
2013-10-28 11:43:00,78.0,72.0,30.08,North,356,7.0,12.0,83,0.00,,,0.00,,2013-10-28 15:43:00,
2013-10-28 11:53:00,79.0,73.0,30.07,North,355,7.0,12.0,82,0.00,,,0.00,,2013-10-28 15:53:00,
2013-10-28 12:23:00,80.0,74.0,30.07,North,349,8.0,12.0,81,0.00,,,0.00,,2013-10-28 16:23:00,
2013-10-28 12:43:00,80.0,73.0,30.07,NNW,346,9.0,13.0,80,0.00,,,0.00,,2013-10-28 16:43:00,
2013-10-28 12:53:00,80.0,72.0,30.06,North,352,6.0,13.0,78,0.00,,,0.00,,2013-10-28 16:53:00,
2013-10-28 13:12:00,80.0,71.0,30.06,NNE,19,10.0,14.0,75,0.00,,,0.00,,2013-10-28 17:12:00,
2013-10-28 13:23:00,81.0,72.0,30.06,North,8,9.0,16.0,73,0.00,,,0.00,,2013-10-28 17:23:00,
2013-10-28 13:52:00,80.0,71.0,30.05,North,357,5.0,12.0,75,0.00,,,0.00,,2013-10-28 17:52:00,
2013-10-28 14:12:00,81.0,72.0,30.05,North,356,7.0,13.0,75,0.00,,,0.00,,2013-10-28 18:12:00,
2013-10-28 14:22:00,81.0,72.0,30.04,North,352,7.0,12.0,75,0.00,,,0.00,,2013-10-28 18:22:00,
2013-10-28 14:52:00,80.0,71.0,30.03,North,11,8.0,14.0,75,0.00,,,0.00,,2013-10-28 18:52:00,
2013-10-28 15:22:00,81.0,72.0,30.02,North,1,11.0,15.0,74,0.00,,,0.00,,2013-10-28 19:22:00,
2013-10-28 15:42:00,81.0,73.0,30.02,North,9,4.0,12.0,76,0.00,,,0.00,,2013-10-28 19:42:00,
2013-10-28 15:53:00,81.0,73.0,30.02,East,92,6.0,10.0,77,0.00,,,0.00,,2013-10-28 19:53:00,
2013-10-28 16:12:00,81.0,73.0,30.02,NE,54,4.0,10.0,77,0.00,,,0.00,,2013-10-28 20:12:00,
2013-10-28 16:22:00,81.0,73.0,30.02,ENE,66,4.0,11.0,76,0.00,,,0.00,,2013-10-28 20:22:00,
2013-10-28 16:52:00,81.0,73.0,30.02,North,9,5.0,8.0,76,0.00,,,0.00,,2013-10-28 20:52:00,
2013-10-28 17:22:00,81.0,73.0,30.03,NNE,16,3.0,9.0,77,0.00,,,0.00,,2013-10-28 21:22:00,
2013-10-28 17:43:00,81.0,73.0,30.03,North,11,5.0,9.0,77,0.00,,,0.00,,2013-10-28 21:43:00,
2013-10-28 17:54:00,80.0,72.0,30.03,NNE,21,3.0,8.0,77,0.00,,,0.00,,2013-10-28 21:54:00,
2013-10-28 18:23:00,80.0,72.0,30.04,NNE,18,4.0,10.0,76,0.00,,,0.00,,2013-10-28 22:23:00,
2013-10-28 18:53:00,79.0,72.0,30.04,NNE,20,5.0,13.0,78,0.00,,,0.00,,2013-10-28 22:53:00,
2013-10-28 19:22:00,79.0,72.0,30.04,NNE,28,2.0,8.0,79,0.00,,,0.00,,2013-10-28 23:22:00,
2013-10-28 19:42:00,79.0,72.0,30.04,NNE,12,4.0,8.0,80,0.00,,,0.00,,2013-10-28 23:42:00,
2013-10-28 19:52:00,79.0,72.0,30.05,North,8,4.0,14.0,79,0.00,,,0.00,,2013-10-28 23:52:00,
2013-10-28 20:22:00,79.0,73.0,30.06,North,3,6.0,13.0,81,0.00,,,0.00,,2013-10-29 00:22:00,
2013-10-28 20:42:00,79.0,73.0,30.06,NNE,18,10.0,15.0,81,0.00,,,0.00,,2013-10-29 00:42:00,
2013-10-28 20:52:00,79.0,73.0,30.06,North,10,9.0,15.0,82,0.00,,,0.00,,2013-10-29 00:52:00,
2013-10-28 21:11:00,78.0,72.0,30.07,NNE,24,6.0,16.0,82,0.00,,,0.00,,2013-10-29 01:11:00,
2013-10-28 21:22:00,78.0,72.0,30.07,NNE,16,6.0,14.0,82,0.00,,,0.00,,2013-10-29 01:22:00,
2013-10-28 21:42:00,78.0,72.0,30.07,North,360,8.0,15.0,82,0.00,,,0.00,,2013-10-29 01:42:00,
2013-10-28 21:53:00,79.0,73.0,30.08,NNE,13,7.0,16.0,82,0.00,,,0.00,,2013-10-29 01:53:00,
2013-10-28 22:21:00,79.0,73.0,30.08,North,357,4.0,10.0,82,0.00,,,0.00,,2013-10-29 02:21:00,
2013-10-28 22:44:00,79.0,73.0,30.09,North,9,7.0,14.0,82,0.00,,,0.00,,2013-10-29 02:44:00,
2013-10-28 22:54:00,79.0,73.0,30.09,North,11,7.0,12.0,82,0.00,,,0.00,,2013-10-29 02:54:00,
2013-10-28 23:14:00,79.0,73.0,30.09,NNW,342,6.0,12.0,82,0.00,,,0.00,,2013-10-29 03:14:00,
2013-10-28 23:27:00,79.0,73.0,30.08,North,5,6.0,15.0,81,0.00,,,0.00,,2013-10-29 03:27:00,
2013-10-28 23:40:00,-999.0,-99.9,30.09,North,5,8.0,12.0,81,0.00,,,0.00,,2013-10-29 03:40:00,
2013-10-28 23:48:00,79.0,73.0,30.09,North,5,8.0,12.0,81,0.00,,,0.00,,2013-10-29 03:48:00,
2013-10-28 23:56:00,79.0,73.0,30.09,North,7,5.0,14.0,82,0.00,,,0.00,,2013-10-29 03:56:00,